Location: ??????
(55.7522°N, 37.6156°E)
Time: 03:04:22
(UTC+00:00)

Cosmos 1437 Rocket - Pass Details

Date: 14 June 2025
Orbit: 456 x 498 km, 81.2° (Epoch: 11 July)

Event Time Altitude Azimuth Distance (km) Brightness Sun altitude
Rises 20:21:54 0° 222° (SW) 2,489 5.9 -9.6°
Reaches altitude 10° 20:24:11 10° 235° (SW) 1,625 5.0 -9.7°
Maximum altitude 20:27:15 27° 295° (WNW) 941 4.5 -9.8°
Drops below altitude 10° 20:30:24 10° 356° (N) 1,656 6.8 -9.9°
Sets 20:32:45 0° 8° (N) 2,549 7.7 -10.0°
